ARG1754 SAZS-SAVE

Flight info

Callsign ARG1754
Flight time 0h 29m
Altitude 30000
Route TORES2C TORES DCT ANSOT
Aircraft B737/M-SDE2E3FGHIRWXY/LB1

Departure

Time 2026-04-25 22:39
Airport Teniente Luis Candelaria International Airport (SAZS)

Arrival

Time 2026-04-25 23:08
Airport Esquel Brigadier Antonio Parodi International Airport (SAVE)
Time Latitude Longitude Altitude Speed Heading
2026-04-25 22:03 -41.14672 -71.16099 2784 ft 0 kts 25°
2026-04-25 22:27 -41.14673 -71.16100 2784 ft 0 kts 24°
2026-04-25 22:28 -41.14684 -71.16107 2784 ft 2 kts 25°
2026-04-25 22:28 -41.14698 -71.16116 2784 ft 2 kts 25°
2026-04-25 22:28 -41.14711 -71.16124 2784 ft 2 kts 25°
2026-04-25 22:28 -41.14725 -71.16132 2784 ft 2 kts 25°
2026-04-25 22:29 -41.14738 -71.16141 2784 ft 2 kts 26°
2026-04-25 22:29 -41.14751 -71.16150 2784 ft 2 kts 26°
2026-04-25 22:29 -41.14765 -71.16159 2784 ft 2 kts 26°
2026-04-25 22:30 -41.14791 -71.16177 2784 ft 2 kts 25°
2026-04-25 22:30 -41.14801 -71.16190 2784 ft 2 kts 76°
2026-04-25 22:30 -41.14801 -71.16208 2784 ft 0 kts 110°
2026-04-25 22:30 -41.14800 -71.16213 2784 ft 1 kts 121°
2026-04-25 22:31 -41.14798 -71.16217 2784 ft 0 kts 116°
2026-04-25 22:32 -41.14798 -71.16215 2784 ft 1 kts 116°
2026-04-25 22:33 -41.14811 -71.16178 2784 ft 7 kts 114°
2026-04-25 22:33 -41.14841 -71.16093 2784 ft 11 kts 115°
2026-04-25 22:33 -41.14874 -71.15997 2784 ft 10 kts 115°
2026-04-25 22:33 -41.14904 -71.15910 2784 ft 9 kts 114°
2026-04-25 22:34 -41.14930 -71.15836 2784 ft 8 kts 116°
2026-04-25 22:34 -41.14955 -71.15764 2784 ft 9 kts 114°
2026-04-25 22:34 -41.14984 -71.15677 2784 ft 11 kts 113°
2026-04-25 22:34 -41.15019 -71.15577 2784 ft 12 kts 116°
2026-04-25 22:35 -41.15059 -71.15462 2784 ft 14 kts 114°
2026-04-25 22:35 -41.15100 -71.15337 2784 ft 15 kts 114°
2026-04-25 22:35 -41.15147 -71.15206 2784 ft 16 kts 114°
2026-04-25 22:35 -41.15188 -71.15086 2784 ft 12 kts 117°
2026-04-25 22:36 -41.15224 -71.14986 2784 ft 11 kts 114°
2026-04-25 22:36 -41.15255 -71.14893 2784 ft 10 kts 114°
2026-04-25 22:36 -41.15285 -71.14808 2784 ft 11 kts 114°
2026-04-25 22:36 -41.15321 -71.14704 2784 ft 12 kts 115°
2026-04-25 22:37 -41.15356 -71.14603 2784 ft 12 kts 114°
2026-04-25 22:37 -41.15388 -71.14507 2784 ft 10 kts 114°
2026-04-25 22:37 -41.15428 -71.14440 2784 ft 8 kts 156°
2026-04-25 22:37 -41.15490 -71.14457 2784 ft 8 kts 204°
2026-04-25 22:38 -41.15536 -71.14490 2784 ft 5 kts 223°
2026-04-25 22:38 -41.15539 -71.14532 2784 ft 4 kts 293°
2026-04-25 22:38 -41.15509 -71.14621 2784 ft 36 kts 294°
2026-04-25 22:38 -41.15284 -71.15268 2784 ft 113 kts 295°
2026-04-25 22:39 -41.14890 -71.16402 3061 ft 147 kts 295°
2026-04-25 22:39 -41.14485 -71.17574 3861 ft 146 kts 294°
2026-04-25 22:39 -41.14079 -71.18789 4550 ft 155 kts 293°
2026-04-25 22:39 -41.13597 -71.20216 4986 ft 183 kts 293°
2026-04-25 22:40 -41.13039 -71.21860 5480 ft 211 kts 293°
2026-04-25 22:40 -41.12415 -71.23697 6212 ft 228 kts 292°
2026-04-25 22:40 -41.11759 -71.25629 7111 ft 237 kts 292°
2026-04-25 22:40 -41.11077 -71.27640 8042 ft 244 kts 292°
2026-04-25 22:41 -41.10385 -71.29681 8952 ft 250 kts 292°
2026-04-25 22:41 -41.09668 -71.31797 9846 ft 256 kts 292°
2026-04-25 22:41 -41.08934 -71.33964 10718 ft 262 kts 292°
2026-04-25 22:41 -41.08203 -71.36186 11548 ft 267 kts 287°
2026-04-25 22:42 -41.07978 -71.38573 12332 ft 268 kts 258°
2026-04-25 22:42 -41.08747 -71.40749 13152 ft 267 kts 226°
2026-04-25 22:42 -41.10324 -71.41979 13934 ft 270 kts 193°
2026-04-25 22:42 -41.12203 -71.41843 14678 ft 278 kts 165°
2026-04-25 22:43 -41.14043 -71.41080 15461 ft 280 kts 169°
2026-04-25 22:43 -41.15946 -71.40760 16203 ft 281 kts 176°
2026-04-25 22:43 -41.17891 -71.40317 16937 ft 286 kts 167°
2026-04-25 22:43 -41.19765 -71.39509 17645 ft 290 kts 163°
2026-04-25 22:44 -41.21689 -71.38659 18357 ft 293 kts 165°
2026-04-25 22:44 -41.23633 -71.37823 18965 ft 298 kts 165°
2026-04-25 22:44 -41.25681 -71.36927 19013 ft 321 kts 164°
2026-04-25 22:44 -41.27850 -71.35968 18993 ft 343 kts 164°
2026-04-25 22:45 -41.30177 -71.34938 18991 ft 357 kts 164°
2026-04-25 22:45 -41.32575 -71.33875 18987 ft 373 kts 163°
2026-04-25 22:45 -41.35027 -71.32785 18992 ft 374 kts 163°
2026-04-25 22:45 -41.37509 -71.31681 18993 ft 375 kts 163°
2026-04-25 22:46 -41.39992 -71.30576 18992 ft 376 kts 163°
2026-04-25 22:46 -41.42442 -71.29485 18995 ft 376 kts 163°
2026-04-25 22:46 -41.44906 -71.28386 18984 ft 358 kts 163°
2026-04-25 22:46 -41.47188 -71.27364 18997 ft 338 kts 164°
2026-04-25 22:47 -41.49366 -71.26393 18996 ft 332 kts 164°
2026-04-25 22:47 -41.51564 -71.25416 18993 ft 335 kts 164°
2026-04-25 22:47 -41.53800 -71.24418 18992 ft 336 kts 164°
2026-04-25 22:47 -41.56012 -71.23429 18993 ft 336 kts 164°
2026-04-25 22:48 -41.58205 -71.22448 18993 ft 336 kts 164°
2026-04-25 22:48 -41.60448 -71.21444 18993 ft 336 kts 164°
2026-04-25 22:48 -41.62661 -71.20453 18993 ft 336 kts 164°
2026-04-25 22:48 -41.64866 -71.19464 18993 ft 336 kts 164°
2026-04-25 22:49 -41.67066 -71.18477 18993 ft 336 kts 164°
2026-04-25 22:49 -41.69272 -71.17487 18993 ft 336 kts 164°
2026-04-25 22:49 -41.71494 -71.16528 18993 ft 335 kts 167°
2026-04-25 22:49 -41.73759 -71.15861 18993 ft 333 kts 173°
2026-04-25 22:50 -41.76072 -71.15364 18993 ft 333 kts 173°
2026-04-25 22:50 -41.78357 -71.14853 18993 ft 334 kts 173°
2026-04-25 22:50 -41.80633 -71.14334 18993 ft 333 kts 173°
2026-04-25 22:50 -41.82919 -71.13829 18993 ft 333 kts 173°
2026-04-25 22:51 -41.85177 -71.13335 18993 ft 333 kts 173°
2026-04-25 22:51 -41.87473 -71.12833 18993 ft 333 kts 173°
2026-04-25 22:51 -41.89759 -71.12334 18993 ft 333 kts 173°
2026-04-25 22:51 -41.92040 -71.11836 18993 ft 333 kts 173°
2026-04-25 22:52 -41.94321 -71.11339 18982 ft 333 kts 173°
2026-04-25 22:52 -41.96627 -71.10835 18966 ft 334 kts 173°
2026-04-25 22:52 -41.98920 -71.10335 18951 ft 333 kts 173°
2026-04-25 22:52 -42.00426 -71.10006 18940 ft 333 kts 173°
2026-04-25 22:53 -42.03495 -71.09335 18895 ft 333 kts 173°
2026-04-25 22:53 -42.05746 -71.08843 18563 ft 328 kts 173°
2026-04-25 22:53 -42.07970 -71.08356 18092 ft 328 kts 173°
2026-04-25 22:53 -42.10125 -71.07884 17611 ft 327 kts 173°
2026-04-25 22:54 -42.12382 -71.07390 17108 ft 328 kts 173°
2026-04-25 22:54 -42.14605 -71.06902 16613 ft 328 kts 173°
2026-04-25 22:54 -42.16874 -71.06405 16107 ft 327 kts 173°
2026-04-25 22:54 -42.19089 -71.05918 15614 ft 327 kts 173°
2026-04-25 22:55 -42.21344 -71.05423 15111 ft 327 kts 172°
2026-04-25 22:55 -42.23575 -71.04932 14615 ft 327 kts 172°
2026-04-25 22:55 -42.25810 -71.04441 14116 ft 327 kts 172°
2026-04-25 22:55 -42.28019 -71.03954 13618 ft 313 kts 172°
2026-04-25 22:56 -42.30153 -71.03483 13149 ft 312 kts 172°
2026-04-25 22:56 -42.32283 -71.03014 12673 ft 313 kts 172°
2026-04-25 22:56 -42.34434 -71.02540 12193 ft 313 kts 172°
2026-04-25 22:56 -42.36573 -71.02068 11717 ft 313 kts 172°
2026-04-25 22:57 -42.38717 -71.01595 11239 ft 313 kts 172°
2026-04-25 22:57 -42.40832 -71.01126 10760 ft 302 kts 172°
2026-04-25 22:57 -42.42857 -71.00677 10437 ft 290 kts 172°
2026-04-25 22:57 -42.44718 -71.00267 10305 ft 299 kts 172°
2026-04-25 22:58 -42.46785 -70.99809 10174 ft 294 kts 172°
2026-04-25 22:58 -42.48763 -70.99369 10053 ft 283 kts 172°
2026-04-25 22:58 -42.49184 -70.99275 10027 ft 281 kts 172°
2026-04-25 22:58 -42.50416 -70.99002 9892 ft 276 kts 172°
2026-04-25 22:59 -42.52293 -70.98586 9553 ft 275 kts 172°
2026-04-25 22:59 -42.54166 -70.98171 9254 ft 272 kts 172°
2026-04-25 22:59 -42.56023 -70.97759 8907 ft 271 kts 172°
2026-04-25 22:59 -42.57823 -70.97358 8692 ft 264 kts 172°
2026-04-25 23:00 -42.59579 -70.96967 8617 ft 253 kts 172°
2026-04-25 23:00 -42.61261 -70.96592 8528 ft 242 kts 172°
2026-04-25 23:00 -42.62906 -70.96227 8440 ft 234 kts 172°
2026-04-25 23:00 -42.64470 -70.95875 8350 ft 227 kts 171°
2026-04-25 23:01 -42.65957 -70.95162 8140 ft 224 kts 155°
2026-04-25 23:01 -42.67284 -70.94263 7926 ft 221 kts 156°
2026-04-25 23:01 -42.68548 -70.93448 7761 ft 218 kts 155°
2026-04-25 23:01 -42.69918 -70.92561 7609 ft 221 kts 155°
2026-04-25 23:02 -42.71302 -70.91658 7398 ft 221 kts 155°
2026-04-25 23:02 -42.72688 -70.90757 7182 ft 220 kts 155°
2026-04-25 23:02 -42.74067 -70.89861 6967 ft 218 kts 155°
2026-04-25 23:02 -42.75411 -70.88988 6768 ft 214 kts 155°
2026-04-25 23:03 -42.76787 -70.88300 6538 ft 208 kts 175°
2026-04-25 23:03 -42.78145 -70.88711 6348 ft 198 kts 212°
2026-04-25 23:03 -42.79125 -70.89953 6161 ft 191 kts 237°
2026-04-25 23:03 -42.79844 -70.91474 5974 ft 190 kts 238°
2026-04-25 23:04 -42.80558 -70.92960 5787 ft 190 kts 238°
2026-04-25 23:04 -42.80848 -70.93566 5710 ft 189 kts 238°
2026-04-25 23:04 -42.81711 -70.95370 5502 ft 181 kts 238°
2026-04-25 23:04 -42.82380 -70.96769 5315 ft 171 kts 238°
2026-04-25 23:05 -42.83020 -70.98109 5086 ft 168 kts 238°
2026-04-25 23:05 -42.83648 -70.99422 4869 ft 162 kts 238°
2026-04-25 23:05 -42.84259 -71.00701 4651 ft 158 kts 238°
2026-04-25 23:05 -42.84840 -71.01918 4437 ft 152 kts 238°
2026-04-25 23:06 -42.85418 -71.03129 4251 ft 148 kts 238°
2026-04-25 23:06 -42.85972 -71.04290 4039 ft 142 kts 238°
2026-04-25 23:06 -42.86509 -71.05418 3850 ft 142 kts 238°
2026-04-25 23:06 -42.87040 -71.06531 3670 ft 141 kts 238°
2026-04-25 23:07 -42.87567 -71.07637 3481 ft 139 kts 238°
2026-04-25 23:07 -42.88094 -71.08743 3295 ft 139 kts 237°
2026-04-25 23:07 -42.88623 -71.09848 3095 ft 139 kts 237°
2026-04-25 23:07 -42.89171 -71.10926 2881 ft 137 kts 237°
2026-04-25 23:08 -42.89679 -71.12047 2675 ft 140 kts 239°
2026-04-25 23:08 -42.90173 -71.13121 2591 ft 114 kts 236°
2026-04-25 23:08 -42.90483 -71.13768 2606 ft 65 kts 237°
2026-04-25 23:08 -42.90635 -71.14087 2612 ft 17 kts 237°
2026-04-25 23:09 -42.90695 -71.14213 2616 ft 13 kts 237°
2026-04-25 23:09 -42.90726 -71.14308 2620 ft 8 kts 254°
2026-04-25 23:09 -42.90741 -71.14401 2622 ft 11 kts 261°
2026-04-25 23:09 -42.90751 -71.14503 2624 ft 8 kts 267°
2026-04-25 23:10 -42.90740 -71.14565 2625 ft 5 kts 309°
2026-04-25 23:10 -42.90707 -71.14593 2626 ft 5 kts 329°
2026-04-25 23:10 -42.90691 -71.14623 2626 ft 3 kts 288°
2026-04-25 23:10 -42.90682 -71.14660 2627 ft 3 kts 288°
2026-04-25 23:11 -42.90674 -71.14677 2627 ft 0 kts 306°
2026-04-25 23:11 -42.90665 -71.14692 2628 ft 2 kts 312°
2026-04-25 23:11 -42.90664 -71.14693 2628 ft 0 kts 312°